Weather in Kozhikode

India     11°15′18″N   75°47′01″E
temp.,
°C
wind,
m/s
gust,
m/s
humid.,
%
clouds,
%
prec.,
mm/h
press.,
hPa
HPBL,
m
6 march, sat
sat623:30+26n12770 0.0 1015284
02:30+24ene238413 0.0 1013111
05:30+24ne238457 0.0 1013106
08:30+27nne2273100 0.0 1015283
11:30+30wnw4459100 0.0 1014820
14:30+30w666497 0.0 1010557
17:30+29wnw677283 0.0 1010642
20:30+27nw47810 0.0 1013512
7 march, sun
sun723:30+26nnw34850 0.0 1014392
02:30+24ne238918 0.0 1012176
05:30+24ene22899 0.0 1012133
08:30+27e21742 0.0 1014267
11:30+30wsw43611 0.0 1012689
14:30+30w56610 0.0 1008563
17:30+29nw79700 0.0 1008557
20:30+27nw36810 0.0 1011407
8 march, mon
mon823:30+26nnw23840 0.0 1012274
02:30+24e22870 0.0 1010101
05:30+23e23910 0.0 101196
08:30+27ese34740 0.0 1014262
11:30+30sw43610 0.0 1013772
14:30+30wsw55640 0.0 1009613
17:30+29wnw56700 0.0 1008660
20:30+27nw35790 0.0 1012427
9 march, tue
tue923:30+26n23820 0.0 1013322
02:30+24ene22880 0.0 101188
05:30+24e22890 0.0 101193
08:30+27ese23700 0.0 1014261
11:30+31sw32539 0.0 1014857
14:30+30w55592 0.0 1009531
17:30+29wnw57671 0.0 1009634
20:30+27nw34790 0.0 1012350
10 march, wed
wed1023:30+26n12820 0.0 1013301
02:30+24ene22880 0.0 101278
05:30+23ene23860 0.0 101192
08:30+27e22650 0.0 1014226
11:30+31wsw32500 0.0 1013881
14:30+31w66560 0.0 1008528
17:30+29wnw57640 0.0 1008513
20:30+27nw34790 0.0 1012387